Weerstation Grootegast  Weerstation Grootegast


Weather Underground Historische gegevens

Dagelijkse Samenvatting juli 22, 2018 Eenheden:  Metrisch    Engels   Beide
« Vorige Dag
Volgende Dag »
Dagelijkse Wekelijkse Maandelijkse Jaarlijkse Aangepaste
  Huidig: Hoog: Laag: Gemiddeld:
Temperatuur: -6.2 °C -17.8 °C -8.5 °C -6.2 °C
Dauwpunt: -9.3 °C -17.8 °C -9.4 °C -8.8 °C
Vochtigheid: 70 % Humidity % 56 % 76 %
Wind snelheid: 9 km/h 0 km/h 3.1 km/h 13.5 km/h
Windvlaag: 6.8 km/h 0 km/h - -
Wind:North - - SSW
Luchtdruk: 34364.5 hPa 0 hPa 34262.9 hPa -
Neerslag: 0 mm      
Historical Graphs
 
 
Tabel voor juli 22, 2018
Tijd Temperatuur Dauwpunt Luchtdruk Wind Wind snelheid Windvlaag Vochtigheid Regenval per uur
-17.8 °C -17.8 °C 0 hPa Calm     Humidity % 0 mm
00:04 -7.3 °C -8.6 °C 34262.9 hPa NNW 12.7 km/h 6.3 km/h 87 % 0 mm
00:07 -7.3 °C -8.4 °C 34262.9 hPa West 9.8 km/h 7.6 km/h 88 % 0 mm
00:19 -7.3 °C -8.3 °C 34262.9 hPa West 9 km/h 6.8 km/h 89 % 0 mm
00:24 -7.3 °C -8.4 °C 34262.9 hPa WNW 9 km/h 8 km/h 88 % 0 mm
00:29 -7.3 °C -8.2 °C 34262.9 hPa North 11.9 km/h 5.6 km/h 90 % 0 mm
00:34 -7.3 °C -8.2 °C 34262.9 hPa WNW 9 km/h 4.7 km/h 90 % 0 mm
00:39 -7.3 °C -8.2 °C 34262.9 hPa NNW 15 km/h 6.3 km/h 90 % 0 mm
00:44 -7.3 °C -8.3 °C 34262.9 hPa NNE 11.9 km/h 7.6 km/h 90 % 0 mm
00:49 -7.3 °C -8.3 °C 34262.9 hPa West 11.9 km/h 8 km/h 90 % 0 mm
00:54 -7.3 °C -8.3 °C 34262.9 hPa NNE 15 km/h 8 km/h 90 % 0 mm
00:59 -7.3 °C -8.3 °C 34262.9 hPa NW 11.9 km/h 8 km/h 90 % 0 mm
01:04 -7.4 °C -8.4 °C 34262.9 hPa WSW 11.9 km/h 9.3 km/h 89 % 0 mm
01:09 -7.4 °C -8.4 °C 34262.9 hPa West 11.9 km/h 6.3 km/h 89 % 0 mm
01:14 -7.4 °C -8.4 °C 34262.9 hPa WNW 9 km/h 6.3 km/h 89 % 0 mm
01:19 -7.4 °C -8.4 °C 34262.9 hPa SW 11.1 km/h 9.3 km/h 89 % 0 mm
01:24 -7.4 °C -8.4 °C 34262.9 hPa NNW 11.9 km/h 5.6 km/h 89 % 0 mm
01:29 -7.5 °C -8.5 °C 34262.9 hPa North 8.5 km/h 6.3 km/h 89 % 0 mm
01:34 -7.5 °C -8.5 °C 34262.9 hPa ENE 9 km/h 6.3 km/h 89 % 0 mm
01:39 -7.5 °C -8.5 °C 34262.9 hPa West 9 km/h 7.6 km/h 89 % 0 mm
01:43 -7.6 °C -8.5 °C 34262.9 hPa NW 9 km/h 4.2 km/h 90 % 0 mm
01:49 -7.6 °C -8.7 °C 34262.9 hPa West 9 km/h 7.6 km/h 89 % 0 mm
01:54 -7.6 °C -8.7 °C 34262.9 hPa West 9.3 km/h 5.6 km/h 89 % 0 mm
01:59 -7.6 °C -8.7 °C 34262.9 hPa WSW 6 km/h 5.6 km/h 89 % 0 mm
02:04 -7.7 °C -8.7 °C 34262.9 hPa NW 9 km/h 5.1 km/h 89 % 0 mm
02:09 -7.7 °C -8.6 °C 34262.9 hPa NNW 6 km/h 6.8 km/h 90 % 0 mm
02:14 -7.7 °C -8.7 °C 34262.9 hPa WNW 9.8 km/h 8 km/h 90 % 0 mm
02:19 -7.7 °C -8.7 °C 34262.9 hPa WSW 11.9 km/h 8 km/h 90 % 0 mm
02:24 -7.7 °C -8.7 °C 34262.9 hPa North 9 km/h 6.8 km/h 89 % 0 mm
02:29 -7.8 °C -8.8 °C 34262.9 hPa WNW 11.9 km/h 6.8 km/h 89 % 0 mm
02:34 -7.8 °C -8.8 °C 34262.9 hPa WSW 9.8 km/h 8 km/h 89 % 0 mm
02:39 -7.8 °C -8.8 °C 34262.9 hPa West 7.6 km/h 6.3 km/h 89 % 0 mm
02:44 -7.8 °C -8.8 °C 34262.9 hPa West 9 km/h 6.3 km/h 89 % 0 mm
02:49 -7.8 °C -8.8 °C 34262.9 hPa West 9 km/h 5.6 km/h 90 % 0 mm
02:54 -7.8 °C -8.8 °C 34262.9 hPa North 9 km/h 6.3 km/h 90 % 0 mm
02:59 -7.8 °C -8.7 °C 34262.9 hPa WSW 6.3 km/h 5.6 km/h 91 % 0 mm
03:04 -7.8 °C -8.6 °C 34262.9 hPa WNW 6 km/h 5.1 km/h 91 % 0 mm
03:09 -7.8 °C -8.6 °C 34262.9 hPa WNW 6.3 km/h 5.1 km/h 92 % 0 mm
03:14 -7.8 °C -8.6 °C 34262.9 hPa NW 6 km/h 4.7 km/h 91 % 0 mm
03:15 -7.8 °C -8.6 °C 34262.9 hPa West 6 km/h 4.7 km/h 91 % 0 mm
03:24 -7.8 °C -8.5 °C 34262.9 hPa West 6 km/h 4.2 km/h 92 % 0 mm
03:29 -7.8 °C -8.5 °C 34262.9 hPa West 6 km/h 3.7 km/h 92 % 0 mm
03:34 -7.8 °C -8.5 °C 34262.9 hPa NNW 3.1 km/h 3.1 km/h 92 % 0 mm
03:39 -7.8 °C -8.5 °C 34262.9 hPa NW 6 km/h 3.1 km/h 92 % 0 mm
03:44 -7.8 °C -8.5 °C 34262.9 hPa NW 7.6 km/h 5.1 km/h 92 % 0 mm
03:49 -7.8 °C -8.5 °C 34262.9 hPa NW 3.1 km/h 3.1 km/h 92 % 0 mm
03:54 -7.8 °C -8.5 °C 34262.9 hPa NW 8 km/h 5.1 km/h 92 % 0 mm
03:59 -7.8 °C -8.4 °C 34262.9 hPa North 3.1 km/h 1.3 km/h 93 % 0 mm
04:04 -7.8 °C -8.5 °C 34262.9 hPa West 3.1 km/h 1.8 km/h 92 % 0 mm
04:09 -7.8 °C -8.5 °C 34262.9 hPa West 3.7 km/h 3.7 km/h 92 % 0 mm
04:14 -7.8 °C -8.5 °C 34262.9 hPa West 6 km/h 1.8 km/h 92 % 0 mm
04:19 -7.8 °C -8.5 °C 34262.9 hPa West 8 km/h 5.6 km/h 92 % 0 mm
04:24 -7.8 °C -8.5 °C 34262.9 hPa West 6 km/h 3.1 km/h 92 % 0 mm
04:29 -7.8 °C -8.5 °C 34262.9 hPa West 8 km/h 6.8 km/h 92 % 0 mm
04:34 -7.8 °C -8.5 °C 34262.9 hPa West 9 km/h 8 km/h 92 % 0 mm
04:39 -7.8 °C -8.4 °C 34262.9 hPa West 10.3 km/h 9.3 km/h 93 % 0 mm
04:44 -7.8 °C -8.6 °C 34262.9 hPa NW 11.9 km/h 8.5 km/h 92 % 0 mm
04:49 -7.9 °C -8.6 °C 34262.9 hPa West 9 km/h 7.6 km/h 92 % 0 mm
04:54 -7.9 °C -8.7 °C 34262.9 hPa West 10.3 km/h 8.5 km/h 92 % 0 mm
04:59 -7.9 °C -8.7 °C 34262.9 hPa West 11.9 km/h 8.5 km/h 92 % 0 mm
05:04 -8 °C -8.8 °C 34262.9 hPa West 9 km/h 8 km/h 91 % 0 mm
05:09 -8.1 °C -8.9 °C 34262.9 hPa West 9 km/h 7.6 km/h 91 % 0 mm
05:14 -8.1 °C -8.9 °C 34262.9 hPa West 9 km/h 6.8 km/h 91 % 0 mm
05:19 -8.1 °C -8.9 °C 34262.9 hPa West 6 km/h 6.8 km/h 91 % 0 mm
05:24 -8.2 °C -9 °C 34262.9 hPa West 6 km/h 4.2 km/h 91 % 0 mm
05:29 -8.2 °C -9 °C 34262.9 hPa West 6 km/h 4.2 km/h 91 % 0 mm
05:34 -8.2 °C -9.1 °C 34262.9 hPa West 9 km/h 6.8 km/h 91 % 0 mm
05:39 -8.3 °C -9.1 °C 34262.9 hPa West 10.3 km/h 7.6 km/h 91 % 0 mm
05:44 -8.3 °C -9.1 °C 34296.8 hPa West 6 km/h 5.6 km/h 91 % 0 mm
05:49 -8.3 °C -9.2 °C 34296.8 hPa West 6 km/h 4.7 km/h 91 % 0 mm
05:54 -8.3 °C -9.2 °C 34296.8 hPa West 9 km/h 3.7 km/h 91 % 0 mm
05:59 -8.4 °C -9.1 °C 34296.8 hPa West 6.3 km/h 5.6 km/h 92 % 0 mm
06:04 -8.4 °C -9.2 °C 34296.8 hPa West 9 km/h 7.6 km/h 92 % 0 mm
06:08 -8.4 °C -9.2 °C 34296.8 hPa WNW 9 km/h 3.7 km/h 92 % 0 mm
06:14 -8.4 °C -9.2 °C 34296.8 hPa WNW 9 km/h 6.8 km/h 92 % 0 mm
06:19 -8.5 °C -9.1 °C 34296.8 hPa WSW 9 km/h 6.8 km/h 93 % 0 mm
06:24 -8.5 °C -9.1 °C 34296.8 hPa West 9 km/h 5.6 km/h 93 % 0 mm
06:29 -8.5 °C -9.1 °C 34296.8 hPa SW 9.8 km/h 8 km/h 93 % 0 mm
06:34 -8.5 °C -9.1 °C 34296.8 hPa West 11.9 km/h 8 km/h 93 % 0 mm
06:39 -8.5 °C -9.1 °C 34296.8 hPa West 6 km/h 4.7 km/h 93 % 0 mm
06:44 -8.5 °C -9.1 °C 34296.8 hPa West 6 km/h 4.7 km/h 94 % 0 mm
06:49 -8.4 °C -9 °C 34296.8 hPa West 9 km/h 4.7 km/h 94 % 0 mm
06:54 -8.4 °C -9 °C 34296.8 hPa WNW 9 km/h 8.5 km/h 94 % 0 mm
06:59 -8.4 °C -8.9 °C 34296.8 hPa West 12.7 km/h 9.8 km/h 95 % 0 mm
07:04 -8.4 °C -8.8 °C 34296.8 hPa West 9 km/h 6.3 km/h 95 % 0 mm
07:09 -8.3 °C -8.7 °C 34296.8 hPa West 9 km/h 4.7 km/h 96 % 0 mm
07:14 -8.3 °C -8.7 °C 34296.8 hPa West 15 km/h 12.2 km/h 96 % 0 mm
07:19 -8.3 °C -8.7 °C 34296.8 hPa WNW 9 km/h 6.3 km/h 96 % 0 mm
07:24 -8.2 °C -8.6 °C 34296.8 hPa West 10.3 km/h 7.6 km/h 96 % 0 mm
07:29 -8.2 °C -8.5 °C 34330.7 hPa West 14 km/h 8.5 km/h 96 % 0 mm
07:34 -8.1 °C -8.4 °C 34330.7 hPa West 15 km/h 10.3 km/h 96 % 0 mm
07:39 -8.1 °C -8.4 °C 34330.7 hPa West 16.6 km/h 12.7 km/h 96 % 0 mm
07:44 -8 °C -8.3 °C 34296.8 hPa West 11.9 km/h 8 km/h 97 % 0 mm
07:49 -7.9 °C -8.2 °C 34296.8 hPa West 11.9 km/h 11.1 km/h 97 % 0 mm
07:54 -7.8 °C -8.1 °C 34296.8 hPa West 9 km/h 5.6 km/h 97 % 0 mm
07:58 -7.8 °C -8.1 °C 34296.8 hPa SW 15 km/h 9.3 km/h 97 % 0 mm
08:04 -7.7 °C -8.1 °C 34296.8 hPa West 15 km/h 6.3 km/h 96 % 0 mm
08:09 -7.7 °C -7.9 °C 34296.8 hPa WNW 11.9 km/h 7.6 km/h 97 % 0 mm
08:14 -7.6 °C -7.9 °C 34296.8 hPa NNW 11.9 km/h 9.8 km/h 96 % 0 mm
08:19 -7.5 °C -7.9 °C 34296.8 hPa WNW 15 km/h 9.8 km/h 96 % 0 mm
08:24 -7.4 °C -7.8 °C 34296.8 hPa West 20.9 km/h 11.6 km/h 95 % 0 mm
08:29 -7.3 °C -7.9 °C 34330.7 hPa NW 23.8 km/h 14 km/h 94 % 0 mm
08:34 -7.2 °C -7.9 °C 34330.7 hPa West 15 km/h 8 km/h 92 % 0 mm
08:39 -7.1 °C -7.8 °C 34330.7 hPa WNW 20.9 km/h 13.5 km/h 92 % 0 mm
08:44 -7 °C -7.8 °C 34330.7 hPa West 23.8 km/h 9.8 km/h 91 % 0 mm
08:49 -6.9 °C -7.7 °C 34330.7 hPa WSW 15.3 km/h 11.1 km/h 91 % 0 mm
08:54 -6.8 °C -7.7 °C 34330.7 hPa WSW 17.9 km/h 13.5 km/h 90 % 0 mm
08:59 -6.7 °C -7.7 °C 34296.8 hPa NNW 17.9 km/h 11.1 km/h 89 % 0 mm
09:04 -6.7 °C -7.8 °C 34296.8 hPa West 20.9 km/h 13.5 km/h 88 % 0 mm
09:09 -6.6 °C -7.9 °C 34296.8 hPa NW 11.9 km/h 6.8 km/h 86 % 0 mm
09:14 -6.6 °C -8.4 °C 34296.8 hPa North 23.8 km/h 11.6 km/h 81 % 0 mm
09:19 -6.4 °C -8.3 °C 34296.8 hPa NNW 15.6 km/h 12.7 km/h 81 % 0 mm
09:24 -6.4 °C -8.5 °C 34296.8 hPa NNE 29.8 km/h 16.1 km/h 79 % 0 mm
09:29 -6.4 °C -8.6 °C 34296.8 hPa WNW 15 km/h 10.3 km/h 78 % 0 mm
09:34 -6.3 °C -8.6 °C 34296.8 hPa West 17.9 km/h 8.5 km/h 78 % 0 mm
09:39 -6.3 °C -8.3 °C 34296.8 hPa NNW 17.9 km/h 11.1 km/h 80 % 0 mm
09:44 -6.2 °C -8.4 °C 34296.8 hPa West 11.9 km/h 8.5 km/h 78 % 0 mm
09:49 -6.2 °C -8.5 °C 34296.8 hPa West 25.4 km/h 16.6 km/h 77 % 0 mm
09:54 -6.1 °C -8.6 °C 34296.8 hPa West 20.9 km/h 10.3 km/h 76 % 0 mm
09:59 -6.1 °C -8.7 °C 34296.8 hPa NNW 26.4 km/h 14 km/h 75 % 0 mm
10:04 -6.1 °C -8.6 °C 34296.8 hPa West 15 km/h 12.7 km/h 76 % 0 mm
10:09 -6 °C -8.4 °C 34296.8 hPa West 23.8 km/h 17.4 km/h 76 % 0 mm
10:14 -5.9 °C -8.5 °C 34296.8 hPa West 20.9 km/h 8.5 km/h 75 % 0 mm
10:19 -5.8 °C -8.4 °C 34296.8 hPa NW 15 km/h 12.2 km/h 75 % 0 mm
10:24 -5.7 °C -8.9 °C 34296.8 hPa West 17.9 km/h 16.1 km/h 70 % 0 mm
10:29 -5.7 °C -8.7 °C 34296.8 hPa North 15 km/h 6.8 km/h 71 % 0 mm
10:33 -5.6 °C -8.7 °C 34296.8 hPa West 11.6 km/h 10.3 km/h 71 % 0 mm
10:39 -5.4 °C -8.7 °C 34296.8 hPa WSW 29.8 km/h 16.1 km/h 70 % 0 mm
10:44 -5.4 °C -8.6 °C 34296.8 hPa West 20.9 km/h 14 km/h 70 % 0 mm
10:49 -5.3 °C -8.8 °C 34296.8 hPa WNW 23.8 km/h 11.1 km/h 68 % 0 mm
10:54 -5.3 °C -8.6 °C 34296.8 hPa North 20.9 km/h 14 km/h 69 % 0 mm
10:59 -5.2 °C -8.6 °C 34296.8 hPa WSW 25.9 km/h 22.5 km/h 69 % 0 mm
11:04 -5.1 °C -8.6 °C 34296.8 hPa WNW 15 km/h 6.8 km/h 68 % 0 mm
11:09 -5.1 °C -8.5 °C 34296.8 hPa West 17.9 km/h 8.5 km/h 68 % 0 mm
11:14 -5 °C -8.4 °C 34296.8 hPa West 20.9 km/h 11.6 km/h 68 % 0 mm
11:19 -5 °C -8.7 °C 34296.8 hPa West 15 km/h 11.1 km/h 66 % 0 mm
11:24 -4.9 °C -8.6 °C 34296.8 hPa West 20.9 km/h 13.5 km/h 67 % 0 mm
11:29 -5 °C -9 °C 34296.8 hPa West 17.9 km/h 11.1 km/h 64 % 0 mm
11:34 -4.9 °C -8.8 °C 34296.8 hPa WSW 23.8 km/h 11.1 km/h 65 % 0 mm
11:39 -4.8 °C -8.7 °C 34296.8 hPa West 26.9 km/h 16.6 km/h 65 % 0 mm
11:44 -4.7 °C -8.6 °C 34330.7 hPa WNW 16.6 km/h 12.7 km/h 65 % 0 mm
11:49 -4.7 °C -8.7 °C 34330.7 hPa WSW 23.8 km/h 11.1 km/h 64 % 0 mm
11:54 -4.7 °C -9.1 °C 34330.7 hPa NW 15 km/h 13.5 km/h 61 % 0 mm
11:59 -4.7 °C -8.8 °C 34330.7 hPa NW 19.2 km/h 13.5 km/h 63 % 0 mm
12:04 -4.7 °C -8.8 °C 34330.7 hPa West 16.1 km/h 19.2 km/h 63 % 0 mm
12:09 -4.8 °C -9.1 °C 34330.7 hPa West 19.6 km/h 12.2 km/h 62 % 0 mm
12:14 -4.7 °C -8.7 °C 34330.7 hPa West 15 km/h 5.6 km/h 64 % 0 mm
12:19 -4.7 °C -8.7 °C 34330.7 hPa NW 15 km/h 10.3 km/h 64 % 0 mm
12:24 -4.7 °C -8.7 °C 34330.7 hPa West 15 km/h 12.2 km/h 64 % 0 mm
12:29 -4.7 °C -8.9 °C 34330.7 hPa WNW 20.9 km/h 12.7 km/h 62 % 0 mm
12:34 -4.6 °C -8.8 °C 34330.7 hPa West 12.7 km/h 9.8 km/h 63 % 0 mm
12:39 -4.6 °C -8.7 °C 34330.7 hPa NW 20.9 km/h 8.5 km/h 63 % 0 mm
12:44 -4.5 °C -8.8 °C 34330.7 hPa NNE 9 km/h 7.6 km/h 62 % 0 mm
12:49 -4.4 °C -8.7 °C 34330.7 hPa WSW 20.9 km/h 12.7 km/h 62 % 0 mm
12:54 -4.3 °C -9.1 °C 34330.7 hPa WSW 23.8 km/h 12.7 km/h 59 % 0 mm
12:59 -4.2 °C -8.8 °C 34330.7 hPa West 20.9 km/h 14.5 km/h 60 % 0 mm
13:04 -4.1 °C -8.8 °C 34330.7 hPa WSW 20.9 km/h 15.3 km/h 59 % 0 mm
13:09 -4.1 °C -8.8 °C 34330.7 hPa West 23.8 km/h 14.5 km/h 59 % 0 mm
13:14 -4 °C -8.8 °C 34330.7 hPa West 14 km/h 11.6 km/h 59 % 0 mm
13:19 -3.9 °C -8.7 °C 34330.7 hPa WNW 15 km/h 14.5 km/h 59 % 0 mm
13:24 -3.9 °C -9.1 °C 34330.7 hPa NW 26.9 km/h 11.6 km/h 56 % 0 mm
13:29 -3.9 °C -9 °C 34330.7 hPa WSW 17.9 km/h 11.1 km/h 57 % 0 mm
13:34 -4 °C -9.2 °C 34330.7 hPa West 20.9 km/h 16.6 km/h 56 % 0 mm
13:39 -4.1 °C -9.3 °C 34330.7 hPa WSW 20.9 km/h 15.3 km/h 56 % 0 mm
13:44 -4.2 °C -9.3 °C 34330.7 hPa West 17.9 km/h 8 km/h 56 % 0 mm
13:49 -4.2 °C -9.4 °C 34330.7 hPa West 15 km/h 11.6 km/h 56 % 0 mm
13:54 -4.2 °C -9.3 °C 34330.7 hPa West 11.9 km/h 9.3 km/h 57 % 0 mm
13:59 -4.3 °C -9.3 °C 34330.7 hPa SW 29.8 km/h 20.9 km/h 57 % 0 mm
14:04 -4.3 °C -9.3 °C 34330.7 hPa West 26.9 km/h 17.9 km/h 57 % 0 mm
14:09 -4.2 °C -9.1 °C 34330.7 hPa West 11.9 km/h 6.8 km/h 58 % 0 mm
14:14 -4.2 °C -9.3 °C 34330.7 hPa West 15.3 km/h 8.5 km/h 57 % 0 mm
14:19 -4.2 °C -9.1 °C 34330.7 hPa North 15 km/h 10.3 km/h 58 % 0 mm
14:24 -4.3 °C -9.3 °C 34330.7 hPa North 20.9 km/h 9.8 km/h 57 % 0 mm
14:29 -4.3 °C -9.2 °C 34330.7 hPa NNW 15 km/h 8 km/h 58 % 0 mm
14:34 -4.3 °C -9.1 °C 34330.7 hPa North 9 km/h 5.6 km/h 59 % 0 mm
14:39 -4.4 °C -9.3 °C 34330.7 hPa WNW 15.3 km/h 10.3 km/h 58 % 0 mm
14:44 -4.4 °C -9.1 °C 34330.7 hPa NE 15 km/h 5.1 km/h 59 % 0 mm
14:49 -4.4 °C -9.1 °C 34330.7 hPa North 9 km/h 8 km/h 59 % 0 mm
14:54 -4.4 °C -9.3 °C 34330.7 hPa NNW 16.1 km/h 11.1 km/h 58 % 0 mm
14:59 -4.5 °C -9.2 °C 34330.7 hPa West 17.9 km/h 8.5 km/h 59 % 0 mm
15:04 -4.5 °C -9.2 °C 34330.7 hPa WNW 15.6 km/h 11.1 km/h 59 % 0 mm
15:09 -4.6 °C -9.1 °C 34330.7 hPa West 20.9 km/h 9.8 km/h 60 % 0 mm
15:14 -4.6 °C -9.2 °C 34330.7 hPa NE 17.9 km/h 11.6 km/h 60 % 0 mm
15:19 -4.6 °C -9.1 °C 34330.7 hPa North 17.4 km/h 9.3 km/h 61 % 0 mm
15:24 -4.6 °C -9.1 °C 34330.7 hPa NW 11.9 km/h 9.8 km/h 61 % 0 mm
15:29 -4.6 °C -9.1 °C 34330.7 hPa North 15 km/h 9.3 km/h 61 % 0 mm
15:34 -4.6 °C -9 °C 34330.7 hPa NNE 20.9 km/h 7.6 km/h 61 % 0 mm
15:39 -4.6 °C -9.1 °C 34330.7 hPa West 11.9 km/h 5.6 km/h 60 % 0 mm
15:44 -4.4 °C -8.9 °C 34296.8 hPa West 15 km/h 8 km/h 61 % 0 mm
15:49 -4.4 °C -9 °C 34296.8 hPa NNW 9 km/h 8.5 km/h 60 % 0 mm
15:54 -4.4 °C -9 °C 34296.8 hPa WNW 16.1 km/h 11.6 km/h 60 % 0 mm
15:58 -4.5 °C -8.9 °C 34330.7 hPa NNW 14.5 km/h 12.2 km/h 61 % 0 mm
16:04 -4.6 °C -8.7 °C 34330.7 hPa North 25.4 km/h 12.7 km/h 63 % 0 mm
16:09 -4.7 °C -8.6 °C 34330.7 hPa NNW 20.9 km/h 12.7 km/h 65 % 0 mm
16:14 -4.8 °C -8.6 °C 34330.7 hPa North 20.3 km/h 19.6 km/h 66 % 0 mm
16:19 -4.9 °C -8.5 °C 34330.7 hPa North 17.9 km/h 9.8 km/h 67 % 0 mm
16:24 -4.9 °C -8.4 °C 34330.7 hPa NW 15.3 km/h 11.1 km/h 68 % 0 mm
16:29 -4.9 °C -8.6 °C 34330.7 hPa NNW 20.3 km/h 17.9 km/h 67 % 0 mm
16:34 -4.9 °C -8.6 °C 34330.7 hPa WSW 15 km/h 7.6 km/h 67 % 0 mm
16:39 -4.9 °C -8.6 °C 34330.7 hPa North 17.9 km/h 12.2 km/h 67 % 0 mm
16:44 -5 °C -8.6 °C 34330.7 hPa North 17.9 km/h 11.1 km/h 67 % 0 mm
16:49 -5 °C -8.6 °C 34330.7 hPa North 15 km/h 11.1 km/h 67 % 0 mm
16:54 -5 °C -8.6 °C 34330.7 hPa NE 15 km/h 12.2 km/h 67 % 0 mm
16:59 -4.9 °C -8.4 °C 34330.7 hPa NNE 16.6 km/h 9.8 km/h 68 % 0 mm
17:04 -4.9 °C -8.6 °C 34330.7 hPa NNE 6 km/h 5.1 km/h 67 % 0 mm
17:09 -4.8 °C -8.4 °C 34330.7 hPa NE 11.9 km/h 9.3 km/h 67 % 0 mm
17:14 -4.8 °C -8.6 °C 34330.7 hPa NNW 11.9 km/h 6.3 km/h 66 % 0 mm
17:19 -4.9 °C -8.7 °C 34330.7 hPa NW 11.9 km/h 8.5 km/h 66 % 0 mm
17:24 -4.9 °C -8.8 °C 34330.7 hPa NNW 12.7 km/h 11.6 km/h 65 % 0 mm
17:29 -4.9 °C -8.7 °C 34330.7 hPa NW 15.3 km/h 9.3 km/h 66 % 0 mm
17:34 -4.9 °C -8.6 °C 34330.7 hPa North 12.7 km/h 10.3 km/h 66 % 0 mm
17:39 -4.9 °C -8.7 °C 34330.7 hPa North 11.9 km/h 9.8 km/h 65 % 0 mm
17:44 -4.9 °C -8.7 °C 34330.7 hPa North 11.9 km/h 9.3 km/h 66 % 0 mm
17:49 -4.9 °C -8.7 °C 34330.7 hPa NE 11.9 km/h 9.3 km/h 66 % 0 mm
17:54 -4.9 °C -8.8 °C 34330.7 hPa NNW 20.9 km/h 11.1 km/h 65 % 0 mm
17:59 -5 °C -8.8 °C 34330.7 hPa North 15 km/h 8 km/h 65 % 0 mm
18:04 -5 °C -8.8 °C 34330.7 hPa NNW 17.9 km/h 11.1 km/h 65 % 0 mm
18:09 -5 °C -8.8 °C 34330.7 hPa North 11.9 km/h 11.6 km/h 65 % 0 mm
18:14 -5.1 °C -8.9 °C 34330.7 hPa NNW 17.9 km/h 11.1 km/h 65 % 0 mm
18:19 -5.1 °C -9.1 °C 34330.7 hPa North 20.9 km/h 15.3 km/h 64 % 0 mm
18:24 -5.2 °C -9 °C 34330.7 hPa NNE 20.9 km/h 14.5 km/h 65 % 0 mm
18:29 -5.2 °C -8.9 °C 34330.7 hPa WNW 9 km/h 7.6 km/h 66 % 0 mm
18:34 -5.2 °C -8.9 °C 34330.7 hPa NNW 11.9 km/h 7.6 km/h 66 % 0 mm
18:39 -5.2 °C -8.9 °C 34330.7 hPa West 11.9 km/h 9.3 km/h 66 % 0 mm
18:44 -5.2 °C -9 °C 34330.7 hPa South 17.9 km/h 11.6 km/h 65 % 0 mm
18:49 -5.2 °C -9 °C 34330.7 hPa NNW 13.5 km/h 11.6 km/h 65 % 0 mm
18:54 -5.2 °C -9.1 °C 34330.7 hPa WNW 11.9 km/h 12.7 km/h 65 % 0 mm
18:59 -5.2 °C -8.9 °C 34330.7 hPa North 17.4 km/h 11.1 km/h 66 % 0 mm
19:04 -5.3 °C -9 °C 34330.7 hPa North 13.5 km/h 8.5 km/h 66 % 0 mm
19:09 -5.3 °C -9 °C 34330.7 hPa North 11.1 km/h 8 km/h 66 % 0 mm
19:14 -5.3 °C -9.1 °C 34330.7 hPa North 20.9 km/h 13.5 km/h 65 % 0 mm
19:19 -5.3 °C -9.2 °C 34330.7 hPa North 11.9 km/h 8 km/h 65 % 0 mm
19:24 -5.3 °C -8.8 °C 34330.7 hPa North 15 km/h 8 km/h 68 % 0 mm
19:29 -5.3 °C -8.8 °C 34330.7 hPa NW 11.9 km/h 9.3 km/h 68 % 0 mm
19:34 -5.4 °C -8.8 °C 34330.7 hPa North 15 km/h 11.6 km/h 68 % 0 mm
19:39 -5.4 °C -8.8 °C 34330.7 hPa NNE 15 km/h 12.2 km/h 69 % 0 mm
19:44 -5.4 °C -8.9 °C 34330.7 hPa North 11.9 km/h 8.5 km/h 68 % 0 mm
19:49 -5.4 °C -8.8 °C 34330.7 hPa North 11.9 km/h 9.8 km/h 69 % 0 mm
19:54 -5.4 °C -8.7 °C 34330.7 hPa NNW 9 km/h 6.3 km/h 69 % 0 mm
19:59 -5.4 °C -8.8 °C 34330.7 hPa North 15 km/h 9.3 km/h 68 % 0 mm
20:04 -5.4 °C -8.9 °C 34330.7 hPa North 12.7 km/h 11.1 km/h 68 % 0 mm
20:09 -5.4 °C -8.9 °C 34330.7 hPa North 9 km/h 7.6 km/h 68 % 0 mm
20:14 -5.4 °C -8.8 °C 34330.7 hPa North 9.3 km/h 8 km/h 69 % 0 mm
20:19 -5.4 °C -8.8 °C 34330.7 hPa NW 15 km/h 9.3 km/h 69 % 0 mm
20:24 -5.5 °C -8.8 °C 34330.7 hPa ENE 11.9 km/h 9.3 km/h 69 % 0 mm
20:28 -5.5 °C -8.8 °C 34330.7 hPa North 11.9 km/h 7.6 km/h 69 % 0 mm
20:34 -5.6 °C -8.8 °C 34330.7 hPa North 9.8 km/h 8 km/h 69 % 0 mm
20:39 -5.6 °C -8.9 °C 34330.7 hPa NNE 9.3 km/h 4.7 km/h 69 % 0 mm
20:44 -5.6 °C -8.9 °C 34330.7 hPa North 9 km/h 5.6 km/h 69 % 0 mm
20:49 -5.7 °C -9 °C 34330.7 hPa North 15 km/h 6.3 km/h 69 % 0 mm
20:54 -5.7 °C -9.1 °C 34330.7 hPa NW 15 km/h 11.6 km/h 68 % 0 mm
20:59 -5.7 °C -9.1 °C 34330.7 hPa NNE 6 km/h 4.2 km/h 68 % 0 mm
21:04 -5.8 °C -9.2 °C 34330.7 hPa NNE 11.1 km/h 9.8 km/h 68 % 0 mm
21:09 -5.8 °C -9.2 °C 34330.7 hPa NNE 11.9 km/h 9.3 km/h 68 % 0 mm
21:14 -5.8 °C -9.3 °C 34364.5 hPa NNE 9.8 km/h 7.6 km/h 68 % 0 mm
21:19 -5.9 °C -9.2 °C 34364.5 hPa North 9 km/h 6.8 km/h 69 % 0 mm
21:24 -5.9 °C -9.2 °C 34364.5 hPa NNW 9 km/h 4.2 km/h 69 % 0 mm
21:29 -5.9 °C -9.2 °C 34364.5 hPa North 9 km/h 5.6 km/h 69 % 0 mm
21:34 -5.9 °C -9.2 °C 34364.5 hPa NNW 9 km/h 5.1 km/h 69 % 0 mm
21:39 -6 °C -9.3 °C 34364.5 hPa NW 9 km/h 5.1 km/h 69 % 0 mm
21:44 -6.1 °C -9.2 °C 34364.5 hPa NE 9 km/h 5.1 km/h 70 % 0 mm
21:49 -6.1 °C -9.3 °C 34364.5 hPa North 9 km/h 5.6 km/h 70 % 0 mm
21:54 -6.2 °C -9.3 °C 34364.5 hPa North 9 km/h 6.8 km/h 70 % 0 mm
Weerstation Grootegast
Gegevens verzameld door Weather Underground - 3.25 mb

Script ontwikkeld door  Jim McMurry - jmcmurry@mwt.net Aangepast voor de template door  Wim van der Kuil - Leuven-Template.eu